カタログに戻る

DELTA 1 DEB

YO

運用中LEO
NORAD 167·DEBRIS·🇺🇸 United States

打ち上げ Jul 12, 1961 から Cape Canaveral Space Force Station

Loading…

次のパス (今後24時間)

TLE

最新Source: Space-Track

元期: Sep 14, 2026, 15:13 UTC

1 00167U 61017D   26257.63413302 -.00000020  00000-0  55257-4 0  9994
2 00167  47.8467  14.3830 0089776 118.8841 242.1086 14.24203462377423

AllMySatでDELTA 1 DEBをリアルタイム追跡

Download on the App Store